This demonstration page uses our WeatherBlox Daily Observations layout. Learn more.

Left ArrowRight Arrow

Hourly Observations for June 20, 2016

Temp ( °F °C ) Dew Point ( °F °C ) Humidity (%) Winds ( mph kmh ) Pressure ( in mb ) Visibility ( mi km ) Precip ( " mm )
12:51 am 00:51 Clear 91 32.8 27 -2.8 10 10 E 13 20 29.73 1007 10 16 0.00 0.00
1:51 am 01:51 Clear 91 32.8 29 -1.7 11 11 E 15 24 29.72 1007 10 16 0.00 0.00
2:51 am 02:51 Clear 92 33.3 34 1.1 13 13 E 22 35 29.75 1007 10 16 0.00 0.00
3:51 am 03:51 Clear 88 31.1 42 5.6 20 20 ESE 16 26 29.79 1009 10 16 0.00 0.00
4:51 am 04:51 Clear 83 28.3 44 6.7 25 25 SSE 9 15 29.81 1010 10 16 0.00 0.00
5:51 am 05:51 Sunny 83 28.3 43 6.1 24 24 SSE 8 13 29.84 1010 10 16 0.00 0.00
6:51 am 06:51 Sunny 85 29.4 46 7.8 26 26 SSE 9 15 29.86 1011 10 16 0.00 0.00
7:51 am 07:51 Sunny 89 31.7 46 7.8 23 23 SSE 13 20 29.88 1012 10 16 0.00 0.00
8:51 am 08:51 Sunny 93 33.9 46 7.8 20 20 S 12 19 29.88 1012 10 16 0.00 0.00
9:51 am 09:51 Sunny 96 35.6 44 6.7 17 17 S 12 19 29.88 1012 10 16 0.00 0.00
10:51 am 10:51 Sunny 100 37.8 42 5.6 14 14 SSE 20 31 29.86 1011 10 16 0.00 0.00
11:51 am 11:51 Sunny 102 38.9 42 5.6 13 13 SSE 15 24 29.84 1011 10 16 0.00 0.00
12:51 pm 12:51 Sunny 104 40 41 5 12 12 SSE 16 26 29.81 1010 10 16 0.00 0.00
1:51 pm 13:51 Sunny 106 41.1 40 4.4 10 10 SE 12 19 29.78 1009 10 16 0.00 0.00
2:51 pm 14:51 Sunny 107 41.7 41 5 11 11 S 15 24 29.75 1008 10 16 0.00 0.00
3:51 pm 15:51 Sunny 108 42.2 42 5.6 11 11 ESE 13 20 29.74 1007 10 16 0.00 0.00
4:51 pm 16:51 Sunny 105 40.6 42 5.6 12 12 S 13 20 29.73 1007 10 16 0.00 0.00
5:51 pm 17:51 Sunny 104 40 42 5.6 12 12 SSE 13 20 29.74 1007 10 16 0.00 0.00
6:51 pm 18:51 Sunny 101 38.3 40 4.4 12 12 SE 15 24 29.76 1008 10 16 0.00 0.00
7:51 pm 19:51 Clear 98 36.7 38 3.3 12 12 SE 14 22 29.79 1009 10 16 0.00 0.00
8:51 pm 20:51 Clear 94 34.4 38 3.3 14 14 E 7 11 29.81 1010 10 16 0.00 0.00
9:51 pm 21:51 Clear 91 32.8 38 3.3 15 15 E 7 11 29.83 1010 10 16 0.00 0.00
10:51 pm 22:51 Clear 88 31.1 38 3.3 17 17 ESE 6 9 29.85 1011 10 16 0.00 0.00
11:51 pm 23:51 Clear 87 30.6 38 3.3 18 18 S 7 11 29.86 1011 10 16 0.00 0.00

Powered by AerisWeather